Flag for China Weather past 2 weeks in Shantou, Guangdong, China

Now
79 °F

Fog.


Feels Like: 83 °F
Forecast: 77 / 91 °F
Wind: 1 mph from North

Location: Shantou Airport

Current Time: Oct 2, 2014 at 5:54:55 AM

Latest Report: Oct 2, 2014 at 5:00 AM


Visibility: 3 mi

Pressure: 29.89 "Hg

Humidity: 94%

Dew point: 77 °F

Location of ShantouLocation

Historic Weather in Shantou — Graph

°F

Shantou temperature yesterday

Maximum temperature yesterday: 90 °F (at 2:00 PM)
Minimum temperature yesterday: 73 °F (at 12:00 AM)
Average temperature yesterday: 81 °F

Past Weeks' High & Low Weather Summary

 TemperatureHumidityPressure
High99 °F (Sep 19, 4:00 PM)100% (Sep 18, 3:00 AM)29.98 "Hg (Sep 18, 3:00 AM)
Low73 °F (Sep 30, 11:00 PM)47% (Sep 19, 4:00 PM)29.53 "Hg (Sep 20, 4:00 PM)
Average84 °F78%29.83 "Hg
* Reported Sep 17 4:00 AM — Oct 2 4:00 AM, Shantou, Weather by CustomWeather, © 2014

Note: Actual official high and low records may vary slightly from our data, if they occured in-between our weather recording intervals... More about our weather records

Advertising

Shantou weather history for previous 24 hours

 ConditionsComfort  
Time TempWeatherWind HumidityBarometerVisibility
4:00 AM
Oct 2
79 °FFog.1 mph94%29.86 "Hg3 mi
3:00 AM79 °FPassing clouds.3 mph94%29.86 "Hg4 mi
2:00 AM81 °FPassing clouds.1 mph84%29.89 "HgN/A
1:00 AM81 °FPassing clouds.3 mph84%29.89 "HgN/A
12:00 AM81 °FPassing clouds.3 mph84%29.89 "HgN/A
11:00 PM
Oct 1
81 °FPassing clouds.3 mph89%29.92 "HgN/A
10:00 PM81 °FPassing clouds.3 mph89%29.92 "HgN/A
9:00 PM81 °FPassing clouds.6 mph84%29.92 "HgN/A
8:00 PM81 °FPassing clouds.3 mph89%29.89 "HgN/A
7:00 PM82 °FPassing clouds.6 mph84%29.86 "Hg5 mi
6:00 PM79 °FSprinkles. Fog.1 mph94%29.86 "Hg2 mi
5:00 PM86 °FScattered clouds.6 mph70%29.83 "HgN/A
4:00 PM88 °FScattered clouds.8 mph66%29.83 "HgN/A
3:00 PM88 °FScattered clouds.6 mph66%29.83 "HgN/A
2:00 PM90 °FScattered clouds.3 mph63%29.86 "HgN/A
1:00 PM88 °FPartly sunny.1 mph62%29.89 "HgN/A
12:00 PM88 °FScattered clouds.1 mph66%29.89 "HgN/A
11:00 AM86 °FScattered clouds.1 mph66%29.92 "HgN/A
10:00 AM84 °FPartly sunny.1 mph74%29.95 "HgN/A
9:00 AM81 °FPartly sunny.1 mph84%29.95 "Hg4 mi
8:00 AM79 °FFog.1 mph89%29.95 "Hg3 mi
7:00 AM77 °FFog.1 mph94%29.92 "Hg2 mi
6:00 AM75 °FFog.1 mph94%29.92 "Hg2 mi
5:00 AM75 °FFog.No wind94%29.92 "Hg3 mi
Weather by CustomWeather, © 2014

See weather overviewHow to use our weather pages